www.pogodaiklimat.ru

Погода и климат >> Архив погоды >> Австралия >> Victoria River Downs


ПОГОДА в Victoria River Downs

  • Прогноз погоды в Victoria River Downs
  • Монитор погоды в Victoria River Downs
  • Климат города

АРХИВ ПОГОДЫ в Victoria River Downs

Время (UTC), дата Ветер
(напр.,м/с)
 
Видим.   Явления Облачность Т
(С)
Тd
(С)
f
(%)
Тe
(С)
Тes
(С)
Комфортность P
(гПа)
Po
(гПа)
Тmin
(С)
Tmax
(С)
R
(мм)
R24
(мм)
S
(см)
11 17.01 С 3 н/о н/о +27.2 +20.3 66 +34 +34 очень
душно
1004.1 994.1
14 17.01 В 3 н/о н/о +27.5 +21.1 68 +35 +35 очень
душно
1006.3 996.2 +38.1
17 17.01 В 5 н/о н/о +25.9 +19.3 67 +31 +31 очень
душно
1006.6 996.5
20 17.01 ЮВ 3 н/о н/о +24.4 +20.1 77 +30 +30 очень
душно
1006.7 996.6
23 17.01 В 2 35 км 9/0
[Ci fib]
+28.5 +18.9 56 +34 +38 очень
душно
1007.8 997.7
02 18.01 СВ 3 н/о н/о +31.8 +21.3 54 +40 +40 очень
душно
1006.4 996.3 +24.3
05 18.01 В 4 н/о н/о +33.8 +17.9 39 +38 +38 очень
душно
1004.0 994.0
08 18.01 СВ 3 н/о н/о +34.6 +18.2 38 +39 +39 очень
душно
1002.6 992.6
11 18.01 штиль 0 н/о н/о +30.3 +21.7 60 +39 +39 очень
душно
1004.9 994.9
14 18.01 СЗ 2 н/о {туман} н/о +25.1 +22.4 85 +33 +33 очень
душно
1007.2 997.1 +34.9
17 18.01 штиль 0 н/о {туман} н/о +24.4 +21.5 84 +31 +31 очень
душно
1006.2 996.1
20 18.01 штиль 0 н/о {туман} н/о +24.9 +22.2 85 +32 +32 очень
душно
1005.9 995.8
23 18.01 ЮВ 1 30 км {дождь} 10/0 2000 м
[As op]
+26.3 +22.8 81 +35 +36 очень
душно
1007.3 997.2 19
02 19.01 В 3 н/о {туман} н/о +29.9 +22.1 63 +39 +39 очень
душно
1006.8 996.7 +24.3
05 19.01 ЮВ 4 н/о {туман} н/о +32.1 +20.0 49 +38 +38 очень
душно
1003.7 993.7 0.2
08 19.01 СВ 2 н/о н/о +32.2 +21.4 53 +40 +40 очень
душно
1002.3 992.3
11 19.01 СВ 5 н/о {туман} н/о +24.4 +21.5 84 +31 +31 очень
душно
1005.8 995.7 13
14 19.01 штиль 0 н/о {туман} н/о +24.3 +21.8 86 +31 +31 очень
душно
1006.3 996.2 +32.9
17 19.01 штиль 0 н/о {туман} н/о +24.6 +22.3 87 +32 +32 очень
душно
1004.4 994.4
20 19.01 штиль 0 н/о н/о +24.7 +22.6 88 +32 +32 очень
душно
1004.7 994.7
23 19.01 Ю 1 30 км {ливн. осадки} 10/9 300 м
[Cu med, cong Ci fib]
+27.7 +23.3 77 +37 +38 очень
душно
1006.1 996.0 14
02 20.01 Ю 3 н/о {туман} н/о +30.5 +21.3 58 +38 +38 очень
душно
1004.6 994.6 +23.7
05 20.01 ЮВ 3 н/о {туман} н/о +32.6 +19.8 47 +39 +39 очень
душно
1001.9 991.9 0.2
08 20.01 ЮВ 4 н/о н/о +33.7 +17.8 39 +38 +38 очень
душно
1000.5 990.5
11 20.01 ЮВ 2 н/о н/о +29.7 +20.3 57 +36 +36 очень
душно
1002.5 992.5 0.2
14 20.01 С 3 н/о н/о +28.5 +22.7 71 +38 +38 очень
душно
1003.7 993.7 +34.5
17 20.01 штиль 0 н/о н/о +26.3 +22.6 80 +35 +35 очень
душно
1001.5 991.5
20 20.01 штиль 0 н/о н/о +25.5 +22.8 85 +34 +34 очень
душно
1001.4 991.4
23 20.01 В 3 н/о н/о +28.6 +21.9 67 +37 +37 очень
душно
1003.0 993.0 0.2
02 21.01 ЮВ 4 н/о н/о +31.5 +21.1 54 +39 +39 очень
душно
1002.2 992.2 +25.4
05 21.01 ЮВ 4 н/о н/о +33.5 +19.9 45 +40 +40 очень
душно
999.7 989.7
08 21.01 ЮВ 4 н/о н/о +33.8 +18.3 40 +38 +38 очень
душно
998.6 988.6
11 21.01 В 2 н/о н/о +30.2 +20.4 56 +37 +37 очень
душно
1000.7 990.7
14 21.01 В 3 н/о н/о +29.5 +20.9 60 +37 +37 очень
душно
1001.9 991.9 +34.4
17 21.01 ЮВ 2 н/о н/о +26.8 +21.5 73 +34 +34 очень
душно
1000.7 990.7
20 21.01 В 2 н/о н/о +26.3 +21.9 77 +34 +34 очень
душно
1001.7 991.7
23 21.01 Ю 4 30 км 9/1 300 м
[Cu hum As op]
+27.7 +21.5 69 +35 +36 очень
душно
1002.1 992.1
02 22.01 0 н/о н/о +29.5 +20.9 60 1001.2 991.2 +25.9
05 22.01 ЮВ 4 н/о н/о +31.0 +19.4 50 +37 +37 очень
душно
998.9 988.9
08 22.01 ЮВ 4 н/о {туман} н/о +30.9 +20.8 55 +38 +38 очень
душно
998.7 988.7
11 22.01 ЮВ 5 н/о {туман} н/о +25.4 +22.3 83 +33 +33 очень
душно
1001.7 991.7 0.8
14 22.01 ЮВ 3 н/о {туман} н/о +24.9 +22.4 86 +33 +33 очень
душно
1002.1 992.1 +32.5
17 22.01 ЮВ 2 н/о {туман} н/о +25.1 +22.4 85 +33 +33 очень
душно
1000.6 990.6
20 22.01 Ю 1 н/о н/о +24.9 +22.0 84 +32 +32 очень
душно
1001.0 991.0
23 22.01 ЮВ 3 30 км 10/6 300 м
[Cu med, cong As op]
+26.5 +21.5 74 +34 +34 очень
душно
1002.4 992.4 2
02 23.01 ЮВ 4 н/о {туман} н/о +29.2 +22.2 66 +38 +38 очень
душно
1001.1 991.1 +24.5
05 23.01 Ю 2 н/о {туман} н/о +26.2 +23.1 83 +35 +35 очень
душно
999.9 989.9 3
08 23.01 С 2 н/о {туман} н/о +27.2 +23.9 82 +37 +37 очень
душно
998.9 988.9
11 23.01 В 4 н/о {туман} н/о +25.0 +21.9 83 +32 +32 очень
душно
1002.3 992.3 8
14 23.01 ЮВ 1 н/о {туман} н/о +24.8 +22.9 89 +33 +33 очень
душно
1000.8 990.8 +30.5
17 23.01 Ю 1 н/о {туман} н/о +24.2 +22.3 89 +31 +31 очень
душно
999.5 989.5
20 23.01 Ю 2 н/о н/о +24.8 +22.7 88 +33 +33 очень
душно
999.7 989.7
23 23.01 Ю 2 н/о н/о +25.8 +22.7 83 +34 +34 очень
душно
1000.8 990.8 11
02 24.01 ЮВ 4 н/о {туман} н/о +29.8 +23.0 67 +40 +40 очень
душно
999.3 989.3 +24.2

 

Местоположение метеостанции Victoria River Downs (Северная территория, Австралия): широта -16.40 долгота 131.02 высота над уровнем моря 90 м.

В архиве по умолчанию представлена погода в Victoria River Downs за последнюю неделю. Архивные данные за месяц целиком и за предыдущие месяцы, начиная с января 2011 года, Вы можете получить, выбрав интересующий диапазон дат из раскрывающегося списка и нажав кнопку "Ввод!".

Внимание! Время в таблицах - всемирное. Для получения местного времени необходимо прибавить поправку, которая в Victoria River Downs равна 9.5 ч.

Смотрите также архив погоды в соседних городах и на ближайших метеорологических станциях:

Погода в Delamere Weapons Range (Северная территория, Австралия) (120 км)
Погода в Manbulloo Csiro (Северная территория, Австралия) (163 км)
Погода в Lajamanu (Северная территория, Австралия) (219 км)
Погода в Daly Waters Aws (Северная территория, Австралия) (251 км)
Погода в Tindal (Северная территория, Австралия) (255 км)
Погода в Kununurra (Западная Австралия, Австралия) (256 км)
Погода в Argyle Aero (Западная Австралия, Австралия) (275 км)
Погода в Cape Don Lighthouse (Северная территория, Австралия) (286 км)
Погода в Port Keats Aero (Северная территория, Австралия) (288 км)
Погода в Wyndham Aero (Западная Австралия, Австралия) (323 км)

Пояснения к столбцам:

Ветер - указаны скорость ветра в м/с - средняя за 10 мин, порывы в срок и между сроками (в фигурных скобках) и направление, откуда дует ветер: С - северный, СВ - северо-восточный, В - восточный, ЮВ - юго-восточный, Ю - южный, ЮЗ - юго-западный, З - западный, СЗ - северо-западный.
Видимость - горизонтальная дальность видимости в метрах или километрах. При видимости от 1 до 10 км при отсутствии осадков обычно наблюдается дымка, при ухудшении видимости до 1 км и менее - туман. В сухую погоду видимость может ухудшаться дымом, пылью или мглою.
Явления - указаны атмосферные явления, наблюдавшиеся в срок или в последний час перед сроком; фигурными скобками обозначены явления, наблюдавшиеся между сроками (за 1-3 часа до срока); квадратными скобками обозначены град или гололедные отложения с указанием их диаметра в мм.
Облачность - указаны через наклонную черту общая и нижняя облачность в баллах и высота нижней границы облаков в метрах; квадратными скобками обозначены формы облаков: Ci - перистые, Cs - перисто-слоистые, Cc - перисто-кучевые, Ac - высококучевые, As - высокослоистые, Sc - слоисто-кучевые, Ns - слоисто-дождевые, Cu - кучевые, Cb - кучево-дождевые. Подробнее классификацию облаков см. в Атласе облаков (PDF).
T - Температура воздуха - температура, измеренная на высоте 2 м над землей.
Td - Температура точки росы - температура, при понижении до которой содержащийся в воздухе водяной пар достигнет насыщения.
f - Относительная влажность воздуха - влажноcть воздуха, измеренная на высоте 2 м над землей.
Te - Эффективная температура - температура, которую ощущает одетый по сезону человек в тени. Характеристика душности погоды. При расчете учитывается влияние влажности воздуха и скорости ветра на теплоощущения человека.
Tes - Эффективная температура на солнце - температура, которую ощущает человек, с поправкой на солнечный нагрев. Характеристика знойности погоды. Зависит от высоты солнца над горизонтом, облачности и скорости ветра. Ночью, в пасмурную погоду, а также при ветре 12 м/с и более поправка равна нулю.
P - Атмосферное давление - приведенное к уровню моря атмосферное давление.
Po - Атмосферное давление - измеренное на уровне метеостанции атмосферное давление.
Tmin - Минимальная температура - минимум температуры воздуха на высоте 2 м над землей.
Tmax - Максимальная температура - максимум температуры воздуха на высоте 2 м над землей.
R - Количество осадков - Количество выпавших осадков за период времени, мм. При наведении курсора мыши на число - период времени, за который выпало указанное количество осадков.
R24 - Количество осадков - Количество выпавших осадков за 24 часа, мм.
S - Снежный покров - Высота снежного покрова, см. При наведении курсора мыши на число - состояние снежного покрова и степень покрытия местности в баллах.